Location: ???????
(60.4260°N, 46.9069°E)
Time: 05:18:35
(UTC+00:00)

Meteor 1-28 Rocket - Pass Details

Date: 30 March 2020
Orbit: 503 x 523 km, 97.3° (Epoch: 27 May)

Event Time Altitude Azimuth Distance (km) Brightness Sun altitude
Exits shadow 00:14:08 29° 213° (SSW) 972 4.0 -15.2°
Maximum altitude 00:15:32 41° 262° (W) 754 3.6 -15.1°
Drops below altitude 10° 00:19:07 10° 334° (NNW) 1,749 6.0 -14.7°
Sets 00:21:19 0° 342° (NNW) 2,645 7.0 -14.5°
